Погода в Дябрине

Россия / Архангельская область     61°34′54″N   45°57′44″E
темп.,
°C
ветер,
м/с
пор.,
м/с
влажн.,
%
обл.,
%
осадки,
мм/ч
давл.,
гПа
погр.,
м
18 мая, вт
вт1800:00+10юв119441 0.0 102012
03:00+9вюв119518 0.0 102112
06:00+13вюв247959 0.0 1021246
09:00+18вюв335748 0.0 1021780
12:00+22юв344388 0.0 10201263
15:00+23ююв3538100 0.0 10191437
18:00+21юв3749100 0.0 1018501
21:00+16юв2107294 0.0 1018204
19 мая, ср
ср1900:00+15ююв3127568 0.0 1018255
03:00+14ююв3117891 0.0 1018231
06:00+18ююв310655 0.0 1018339
09:00+23ююв4747100 0.0 1018736
12:00+26ююв464094 0.0 10171177
15:00+28ю46357 0.0 10161676
18:00+25ююв47435 0.0 1016851
21:00+18ююв2106811 0.0 1016209
20 мая, чт
чт2000:00+16ююв2117516 0.0 1016234
03:00+14ююв278261 0.0 1016137
06:00+18ююв396575 0.0 1016287
09:00+23ююв464629 0.0 1015846
12:00+27ююв56350 0.0 10141718
15:00+28ююв57292 0.0 10132018
18:00+25ю48392 0.0 10121467
21:00+18ююв210635 0.0 1012203
21 мая, пт
пт2100:00+16ююв313675 0.0 1011299
03:00+14ююв311740 0.0 1011263
06:00+17ююв411622 0.0 1010400
09:00+22ююв611405 0.0 10091867
12:00+25ююв692979 0.0 10072495
15:00+24ю593384 0.0 10052792
18:00+14ююз3990100 2.9 1006621
21:00+14ю4119193 5.9 1006680
22 мая, сб
сб2200:00+13зюз4119086 0.1 1007625
03:00+11зюз411868 0.1 1010639
06:00+12юз31079100 0.0 1012426
09:00+17юз69478 0.0 10132088
12:00+19зюз6103067 0.0 10132705
15:00+20зюз610275 0.0 10132938
18:00+19юз483478 0.0 10132635
21:00+13зюз23526 0.0 101560